When you browse on this site, cookies collect data to enhance your experience and personalize the content and advertising you see.
Visit our Privacy Policy to learn more. By continuing to use the site, you agree to this use of cookies and data.
  • In United Kingdom
  • List of Countries
  • For 7 days
  • Water Temperature
  • Satellite Maps
  • Weather Map
  • Weather Widgets
  • user-avatar
    Login

    Hourly Weather Jaszczerek

    Today, 11 December, Tuesday

    Time Temperature Precipitation Wind Pressure Humidity
    00:00 -1°C° 0 mm 4 mps 744 mmHg 87%
    01:00 -1°C° 0 mm 4 mps 744 mmHg 88%
    02:00 0°C° 0.2 mm 4 mps 744 mmHg 88%
    03:00 +1°C° 0.2 mm 3 mps 744 mmHg 88%
    04:00 +1°C° 0.2 mm 3 mps 744 mmHg 88%
    05:00 +1°C° 0.3 mm 3 mps 745 mmHg 89%
    06:00 +2°C° 0.3 mm 2 mps 745 mmHg 90%
    07:00 +2°C° 0.3 mm 2 mps 745 mmHg 92%
    08:00 +2°C° 0.1 mm 2 mps 746 mmHg 91%
    09:00 +2°C° 0.1 mm 2 mps 746 mmHg 91%
    10:00 +2°C° 0.1 mm 2 mps 747 mmHg 91%
    11:00 +2°C° 0 mm 2 mps 747 mmHg 90%
    12:00 +3°C° 0 mm 2 mps 747 mmHg 89%
    13:00 +3°C° 0 mm 2 mps 748 mmHg 88%
    14:00 +3°C° 0.1 mm 2 mps 748 mmHg 89%
    15:00 +2°C° 0.1 mm 2 mps 749 mmHg 91%
    16:00 +2°C° 0.1 mm 2 mps 750 mmHg 92%
    17:00 +2°C° 0 mm 2 mps 750 mmHg 92%
    18:00 +1°C° 0 mm 2 mps 751 mmHg 92%
    19:00 +1°C° 0 mm 2 mps 751 mmHg 91%
    20:00 +1°C° 0 mm 2 mps 752 mmHg 91%
    21:00 +1°C° 0 mm 2 mps 752 mmHg 91%
    22:00 -1°C° 0 mm 2 mps 753 mmHg 90%
    23:00 -1°C° 0 mm 2 mps 753 mmHg 91%

    Tomorrow, 12 December, Wednesday

    Time Temperature Precipitation Wind Pressure Humidity
    00:00 -1°C° 0 mm 2 mps 754 mmHg 91%
    01:00 -1°C° 0 mm 2 mps 754 mmHg 91%
    02:00 -1°C° 0 mm 2 mps 755 mmHg 92%
    03:00 -2°C° 0 mm 2 mps 755 mmHg 92%
    04:00 -2°C° 0 mm 2 mps 755 mmHg 93%
    05:00 -2°C° 0 mm 2 mps 756 mmHg 93%
    06:00 -2°C° 0 mm 2 mps 756 mmHg 93%
    07:00 -2°C° 0 mm 2 mps 757 mmHg 93%
    08:00 +1°C° 0 mm 1 mps 757 mmHg 91%
    09:00 +1°C° 0 mm 1 mps 758 mmHg 90%
    10:00 +2°C° 0 mm 1 mps 758 mmHg 88%
    11:00 +1°C° 0 mm 2 mps 758 mmHg 87%
    12:00 +2°C° 0 mm 2 mps 758 mmHg 86%
    13:00 +2°C° 0 mm 2 mps 758 mmHg 85%
    14:00 +2°C° 0 mm 2 mps 758 mmHg 87%
    15:00 +1°C° 0 mm 2 mps 758 mmHg 90%
    16:00 +1°C° 0 mm 2 mps 758 mmHg 92%
    17:00 +1°C° 0 mm 2 mps 759 mmHg 92%
    18:00 +1°C° 0 mm 2 mps 759 mmHg 93%
    19:00 -1°C° 0 mm 2 mps 759 mmHg 93%
    20:00 -1°C° 0 mm 2 mps 759 mmHg 93%
    21:00 -1°C° 0 mm 2 mps 759 mmHg 93%
    22:00 -1°C° 0 mm 2 mps 759 mmHg 93%
    23:00 -1°C° 0 mm 2 mps 759 mmHg 93%

    Day after tomorrow, 13 December, Thursday

    Time Temperature Precipitation Wind Pressure Humidity
    00:00 -1°C° 0 mm 2 mps 759 mmHg 93%
    01:00 -2°C° 0 mm 2 mps 760 mmHg 93%
    02:00 -1°C° 0 mm 2 mps 760 mmHg 92%
    03:00 -1°C° 0 mm 3 mps 760 mmHg 92%
    04:00 -1°C° 0 mm 3 mps 760 mmHg 91%
    05:00 -1°C° 0 mm 3 mps 760 mmHg 90%
    06:00 -1°C° 0 mm 3 mps 760 mmHg 89%
    07:00 -1°C° 0 mm 3 mps 760 mmHg 88%
    08:00 -1°C° 0 mm 3 mps 760 mmHg 85%
    09:00 -2°C° 0 mm 4 mps 760 mmHg 82%
    10:00 -2°C° 0 mm 4 mps 760 mmHg 79%
    11:00 -1°C° 0 mm 4 mps 760 mmHg 78%
    12:00 -1°C° 0 mm 4 mps 760 mmHg 76%
    13:00 -1°C° 0 mm 4 mps 760 mmHg 75%
    14:00 0°C° 0 mm 3 mps 760 mmHg 77%
    15:00 -1°C° 0 mm 3 mps 759 mmHg 79%
    16:00 -1°C° 0 mm 2 mps 759 mmHg 82%
    17:00 -1°C° 0 mm 3 mps 760 mmHg 82%
    18:00 -1°C° 0 mm 3 mps 760 mmHg 83%
    19:00 -1°C° 0 mm 3 mps 760 mmHg 83%
    20:00 -2°C° 0 mm 3 mps 760 mmHg 84%
    21:00 -2°C° 0 mm 3 mps 760 mmHg 84%
    22:00 -2°C° 0 mm 3 mps 760 mmHg 85%
    23:00 -2°C° 0 mm 2 mps 760 mmHg 85%

    14 December, Friday

    Time Temperature Precipitation Wind Pressure Humidity
    00:00 -2°C° 0 mm 2 mps 760 mmHg 86%
    01:00 -2°C° 0 mm 2 mps 760 mmHg 87%
    02:00 -2°C° 0 mm 2 mps 760 mmHg 87%
    03:00 -2°C° 0 mm 2 mps 760 mmHg 87%
    04:00 -3°C° 0 mm 2 mps 760 mmHg 87%
    05:00 -3°C° 0 mm 2 mps 760 mmHg 88%
    06:00 -3°C° 0 mm 2 mps 760 mmHg 88%
    07:00 -3°C° 0 mm 2 mps 760 mmHg 89%
    08:00 -2°C° 0 mm 2 mps 760 mmHg 87%
    09:00 -2°C° 0 mm 2 mps 761 mmHg 86%
    10:00 -2°C° 0 mm 2 mps 761 mmHg 85%
    11:00 -2°C° 0 mm 2 mps 761 mmHg 83%
    12:00 -1°C° 0 mm 2 mps 761 mmHg 82%
    13:00 -1°C° 0 mm 2 mps 761 mmHg 80%
    14:00 -1°C° 0 mm 2 mps 761 mmHg 82%
    15:00 -2°C° 0 mm 2 mps 761 mmHg 84%
    16:00 0°C° 0 mm 1 mps 761 mmHg 87%
    17:00 0°C° 0 mm 1 mps 761 mmHg 87%
    18:00 0°C° 0 mm 1 mps 762 mmHg 88%
    19:00 0°C° 0 mm 1 mps 762 mmHg 89%
    20:00 0°C° 0 mm 1 mps 762 mmHg 90%
    21:00 0°C° 0 mm 1 mps 762 mmHg 90%
    22:00 0°C° 0 mm 1 mps 762 mmHg 91%
    23:00 0°C° 0.1 mm 1 mps 762 mmHg 92%

    15 December, Saturday

    Time Temperature Precipitation Wind Pressure Humidity
    00:00 0°C° 0.1 mm 1 mps 762 mmHg 92%
    01:00 0°C° 0.1 mm 1 mps 762 mmHg 93%
    02:00 0°C° 0.1 mm 1 mps 763 mmHg 93%
    03:00 0°C° 0.1 mm 1 mps 763 mmHg 93%
    04:00 0°C° 0.1 mm 1 mps 763 mmHg 93%
    05:00 0°C° 0.1 mm 1 mps 763 mmHg 93%
    06:00 0°C° 0.1 mm 1 mps 763 mmHg 93%
    07:00 0°C° 0.1 mm 1 mps 763 mmHg 93%
    08:00 0°C° 0 mm 1 mps 764 mmHg 91%
    09:00 -2°C° 0 mm 2 mps 764 mmHg 90%
    10:00 -2°C° 0 mm 2 mps 764 mmHg 88%
    11:00 -2°C° 0 mm 2 mps 764 mmHg 87%
    12:00 -1°C° 0 mm 2 mps 764 mmHg 85%
    13:00 +1°C° 0 mm 1 mps 764 mmHg 83%
    14:00 0°C° 0 mm 1 mps 764 mmHg 85%
    15:00 -2°C° 0 mm 2 mps 765 mmHg 87%
    16:00 -3°C° 0 mm 2 mps 765 mmHg 89%
    17:00 -3°C° 0 mm 2 mps 765 mmHg 90%
    18:00 -3°C° 0 mm 2 mps 765 mmHg 90%
    19:00 -1°C° 0 mm 1 mps 765 mmHg 90%
    20:00 -1°C° 0 mm 1 mps 765 mmHg 91%
    21:00 -1°C° 0 mm 1 mps 765 mmHg 91%
    22:00 -1°C° 0 mm 1 mps 765 mmHg 91%
    23:00 -3°C° 0 mm 2 mps 765 mmHg 91%

    16 December, Sunday

    Time Temperature Precipitation Wind Pressure Humidity
    00:00 -3°C° 0 mm 2 mps 765 mmHg 91%
    01:00 -4°C° 0 mm 2 mps 765 mmHg 91%
    02:00 -4°C° 0 mm 2 mps 764 mmHg 92%
    03:00 -2°C° 0 mm 1 mps 764 mmHg 92%
    04:00 -2°C° 0 mm 1 mps 764 mmHg 92%
    05:00 -2°C° 0 mm 1 mps 764 mmHg 92%
    06:00 -4°C° 0 mm 2 mps 764 mmHg 92%
    07:00 -4°C° 0 mm 2 mps 764 mmHg 92%
    08:00 -3°C° 0 mm 2 mps 764 mmHg 90%
    09:00 -3°C° 0 mm 2 mps 764 mmHg 88%
    10:00 -4°C° 0 mm 3 mps 764 mmHg 86%
    11:00 -2°C° 0 mm 3 mps 763 mmHg 84%
    12:00 -2°C° 0 mm 3 mps 763 mmHg 82%
    13:00 -2°C° 0 mm 3 mps 763 mmHg 79%
    14:00 -2°C° 0 mm 3 mps 762 mmHg 82%
    15:00 -3°C° 0 mm 2 mps 762 mmHg 84%
    16:00 -3°C° 0 mm 2 mps 762 mmHg 87%
    17:00 -4°C° 0 mm 3 mps 762 mmHg 86%
    18:00 -4°C° 0 mm 3 mps 762 mmHg 86%
    19:00 -4°C° 0 mm 3 mps 762 mmHg 85%
    20:00 -4°C° 0 mm 3 mps 762 mmHg 85%
    21:00 -4°C° 0 mm 3 mps 761 mmHg 84%
    22:00 -4°C° 0 mm 3 mps 761 mmHg 83%
    23:00 -5°C° 0 mm 3 mps 761 mmHg 83%
    Show more